When you browse on this site, cookies collect data to enhance your experience and personalize the content and advertising you see.
Visit our Privacy Policy to learn more. By continuing to use the site, you agree to this use of cookies and data.
  • en Suisse
  • Liste des pays
  • À 7 jours
  • Température de l'eau
  • Carte satellitaire
  • Carte météo
  • Widgets météo
  • user-avatar
    Se connecter

    Météo par heure à Kitzbühel

    Ce jour, 24 Mai, Vendredi

    Heure Température Précipitation Vent Pression Humidité
    00:00 +6°C° 0 mm 1 m/s 676 mmHg 89%
    01:00 +5°C° 0 mm 2 m/s 676 mmHg 80%
    02:00 +5°C° 0 mm 2 m/s 676 mmHg 77%
    03:00 +5°C° 0 mm 2 m/s 676 mmHg 74%
    04:00 +5°C° 0 mm 2 m/s 676 mmHg 70%
    05:00 +8°C° 0 mm 1 m/s 676 mmHg 66%
    06:00 +10°C° 0 mm 1 m/s 676 mmHg 61%
    07:00 +12°C° 0 mm 1 m/s 676 mmHg 56%
    08:00 +14°C° 0 mm 1 m/s 677 mmHg 50%
    09:00 +16°C° 0 mm 1 m/s 677 mmHg 45%
    10:00 +19°C° 0 mm 1 m/s 677 mmHg 39%
    11:00 +20°C° 0 mm 1 m/s 677 mmHg 38%
    12:00 +19°C° 0 mm 2 m/s 677 mmHg 38%
    13:00 +20°C° 0 mm 2 m/s 677 mmHg 37%
    14:00 +20°C° 0 mm 2 m/s 676 mmHg 40%
    15:00 +19°C° 0 mm 2 m/s 676 mmHg 42%
    16:00 +19°C° 0 mm 2 m/s 676 mmHg 45%
    17:00 +17°C° 0 mm 2 m/s 675 mmHg 57%
    18:00 +15°C° 0 mm 1 m/s 675 mmHg 68%
    19:00 +14°C° 0 mm 1 m/s 675 mmHg 79%
    20:00 +12°C° 0 mm 1 m/s 675 mmHg 83%
    21:00 +11°C° 0 mm 1 m/s 675 mmHg 86%
    22:00 +10°C° 0 mm 1 m/s 675 mmHg 90%
    23:00 +9°C° 0 mm 1 m/s 675 mmHg 89%

    Demain, 25 Mai, Samedi

    Heure Température Précipitation Vent Pression Humidité
    00:00 +9°C° 0 mm 1 m/s 675 mmHg 87%
    01:00 +9°C° 0 mm 1 m/s 675 mmHg 86%
    02:00 +9°C° 0 mm 1 m/s 675 mmHg 86%
    03:00 +9°C° 0 mm 1 m/s 674 mmHg 86%
    04:00 +8°C° 0 mm 1 m/s 674 mmHg 86%
    05:00 +11°C° 0 mm 1 m/s 675 mmHg 80%
    06:00 +12°C° 0 mm 0 m/s 675 mmHg 73%
    07:00 +14°C° 0 mm 0 m/s 676 mmHg 67%
    08:00 +15°C° 0 mm 0 m/s 676 mmHg 64%
    09:00 +18°C° 0 mm 1 m/s 676 mmHg 60%
    10:00 +19°C° 0 mm 1 m/s 676 mmHg 56%
    11:00 +19°C° 0.4 mm 1 m/s 676 mmHg 61%
    12:00 +19°C° 0.4 mm 1 m/s 676 mmHg 66%
    13:00 +18°C° 0.4 mm 1 m/s 676 mmHg 70%
    14:00 +18°C° 1.1 mm 1 m/s 675 mmHg 77%
    15:00 +15°C° 1.1 mm 0 m/s 675 mmHg 83%
    16:00 +14°C° 1.1 mm 0 m/s 675 mmHg 90%
    17:00 +13°C° 0.6 mm 0 m/s 675 mmHg 92%
    18:00 +13°C° 0.6 mm 0 m/s 675 mmHg 94%
    19:00 +13°C° 0.6 mm 1 m/s 675 mmHg 95%
    20:00 +12°C° 0.9 mm 0 m/s 675 mmHg 96%
    21:00 +11°C° 0.9 mm 0 m/s 675 mmHg 97%
    22:00 +11°C° 0.9 mm 0 m/s 676 mmHg 98%
    23:00 +11°C° 1.9 mm 1 m/s 676 mmHg 98%

    Après-demain, 26 Mai, Dimanche

    Heure Température Précipitation Vent Pression Humidité
    00:00 +11°C° 1.9 mm 1 m/s 676 mmHg 98%
    01:00 +11°C° 1.9 mm 1 m/s 676 mmHg 98%
    02:00 +11°C° 0.5 mm 1 m/s 676 mmHg 98%
    03:00 +10°C° 0.5 mm 1 m/s 675 mmHg 99%
    04:00 +9°C° 0.5 mm 0 m/s 675 mmHg 99%
    05:00 +9°C° 0.1 mm 0 m/s 676 mmHg 97%
    06:00 +10°C° 0.1 mm 0 m/s 676 mmHg 96%
    07:00 +10°C° 0.1 mm 0 m/s 676 mmHg 95%
    08:00 +12°C° 0.1 mm 1 m/s 676 mmHg 90%
    09:00 +14°C° 0.1 mm 1 m/s 676 mmHg 85%
    10:00 +15°C° 0.1 mm 1 m/s 676 mmHg 80%
    11:00 +16°C° 0.1 mm 1 m/s 677 mmHg 75%
    12:00 +18°C° 0.1 mm 1 m/s 677 mmHg 71%
    13:00 +19°C° 0.1 mm 1 m/s 677 mmHg 66%
    14:00 +19°C° 0.2 mm 1 m/s 677 mmHg 68%
    15:00 +19°C° 0.2 mm 1 m/s 676 mmHg 69%
    16:00 +18°C° 0.2 mm 2 m/s 676 mmHg 71%
    17:00 +18°C° 0.5 mm 1 m/s 676 mmHg 78%
    18:00 +16°C° 0.5 mm 1 m/s 675 mmHg 85%
    19:00 +14°C° 0.5 mm 1 m/s 675 mmHg 93%
    20:00 +12°C° 0.4 mm 0 m/s 675 mmHg 94%
    21:00 +11°C° 0.4 mm 0 m/s 675 mmHg 95%
    22:00 +11°C° 0.4 mm 0 m/s 675 mmHg 96%
    23:00 +10°C° 0.4 mm 0 m/s 675 mmHg 96%

    27 Mai, Lundi

    Heure Température Précipitation Vent Pression Humidité
    00:00 +10°C° 0.4 mm 0 m/s 675 mmHg 96%
    01:00 +10°C° 0.4 mm 0 m/s 675 mmHg 96%
    02:00 +10°C° 0.1 mm 0 m/s 675 mmHg 96%
    03:00 +10°C° 0.1 mm 0 m/s 675 mmHg 97%
    04:00 +10°C° 0.1 mm 0 m/s 674 mmHg 97%
    05:00 +11°C° 0 mm 0 m/s 674 mmHg 95%
    06:00 +12°C° 0 mm 0 m/s 674 mmHg 94%
    07:00 +12°C° 0 mm 0 m/s 675 mmHg 93%
    08:00 +14°C° 0.1 mm 1 m/s 675 mmHg 92%
    09:00 +14°C° 0.1 mm 1 m/s 675 mmHg 91%
    10:00 +15°C° 0.1 mm 1 m/s 675 mmHg 90%
    11:00 +15°C° 0.4 mm 1 m/s 675 mmHg 87%
    12:00 +16°C° 0.4 mm 1 m/s 674 mmHg 84%
    13:00 +18°C° 0.4 mm 1 m/s 674 mmHg 82%
    14:00 +16°C° 0.6 mm 1 m/s 674 mmHg 85%
    15:00 +16°C° 0.6 mm 1 m/s 673 mmHg 89%
    16:00 +15°C° 0.6 mm 1 m/s 673 mmHg 93%
    17:00 +15°C° 0.7 mm 1 m/s 673 mmHg 94%
    18:00 +14°C° 0.7 mm 1 m/s 673 mmHg 96%
    19:00 +13°C° 0.7 mm 0 m/s 672 mmHg 98%
    20:00 +13°C° 0.9 mm 1 m/s 672 mmHg 98%
    21:00 +13°C° 0.9 mm 1 m/s 672 mmHg 98%
    22:00 +12°C° 0.9 mm 1 m/s 672 mmHg 98%
    23:00 +12°C° 1.5 mm 1 m/s 671 mmHg 98%

    28 Mai, Mardi

    Heure Température Précipitation Vent Pression Humidité
    00:00 +12°C° 1.5 mm 1 m/s 671 mmHg 98%
    01:00 +11°C° 1.5 mm 0 m/s 671 mmHg 99%
    02:00 +12°C° 2.4 mm 1 m/s 670 mmHg 98%
    03:00 +11°C° 2.4 mm 1 m/s 670 mmHg 98%
    04:00 +11°C° 2.4 mm 1 m/s 669 mmHg 98%
    05:00 +11°C° 2.7 mm 1 m/s 669 mmHg 98%
    06:00 +11°C° 2.7 mm 1 m/s 669 mmHg 98%
    07:00 +11°C° 2.7 mm 1 m/s 668 mmHg 98%
    08:00 +11°C° 1.7 mm 1 m/s 668 mmHg 97%
    09:00 +11°C° 1.7 mm 1 m/s 668 mmHg 97%
    10:00 +12°C° 1.7 mm 1 m/s 668 mmHg 96%
    11:00 +12°C° 0.6 mm 1 m/s 668 mmHg 94%
    12:00 +13°C° 0.6 mm 1 m/s 669 mmHg 91%
    13:00 +14°C° 0.6 mm 1 m/s 669 mmHg 89%
    14:00 +13°C° 0.8 mm 1 m/s 669 mmHg 92%
    15:00 +12°C° 0.8 mm 1 m/s 668 mmHg 95%
    16:00 +12°C° 0.8 mm 1 m/s 668 mmHg 98%
    17:00 +11°C° 1 mm 1 m/s 668 mmHg 98%
    18:00 +11°C° 1 mm 1 m/s 669 mmHg 98%
    19:00 +10°C° 1 mm 1 m/s 669 mmHg 99%
    20:00 +10°C° 0.9 mm 1 m/s 669 mmHg 99%
    21:00 +10°C° 0.9 mm 1 m/s 669 mmHg 99%
    22:00 +10°C° 0.9 mm 1 m/s 669 mmHg 99%
    23:00 +9°C° 2.3 mm 1 m/s 669 mmHg 99%

    29 Mai, Mercredi

    Heure Température Précipitation Vent Pression Humidité
    00:00 +9°C° 2.3 mm 1 m/s 669 mmHg 99%
    01:00 +9°C° 2.3 mm 1 m/s 669 mmHg 99%
    02:00 +8°C° 3.6 mm 1 m/s 669 mmHg 99%
    03:00 +8°C° 3.6 mm 1 m/s 669 mmHg 99%
    04:00 +7°C° 3.6 mm 1 m/s 669 mmHg 99%
    05:00 +7°C° 2.2 mm 1 m/s 669 mmHg 98%
    06:00 +7°C° 2.2 mm 1 m/s 669 mmHg 98%
    07:00 +7°C° 2.2 mm 1 m/s 670 mmHg 98%
    08:00 +7°C° 2.1 mm 1 m/s 670 mmHg 98%
    09:00 +7°C° 2.1 mm 1 m/s 671 mmHg 98%
    10:00 +7°C° 2.1 mm 1 m/s 671 mmHg 98%
    11:00 +7°C° 2.2 mm 1 m/s 672 mmHg 98%
    12:00 +7°C° 2.2 mm 1 m/s 672 mmHg 98%
    13:00 +7°C° 2.2 mm 1 m/s 672 mmHg 98%
    14:00 +8°C° 1 mm 1 m/s 672 mmHg 97%
    15:00 +8°C° 1 mm 1 m/s 673 mmHg 97%
    16:00 +8°C° 1 mm 1 m/s 673 mmHg 96%
    17:00 +8°C° 0.7 mm 1 m/s 673 mmHg 97%
    18:00 +8°C° 0.7 mm 1 m/s 674 mmHg 97%
    19:00 +7°C° 0.7 mm 1 m/s 674 mmHg 98%
    20:00 +7°C° 1.4 mm 1 m/s 674 mmHg 98%
    21:00 +7°C° 1.4 mm 1 m/s 675 mmHg 98%
    22:00 +6°C° 1.4 mm 1 m/s 675 mmHg 98%
    23:00 +6°C° 1.8 mm 1 m/s 676 mmHg 98%
    Voir plus